Find Starlink 5095

NORAD ID: 56885 Int'l Des: 2023-083 Owner: SPXS Country: US Constellation: starlink operational
LEOCIRCULAR

Live Position

Loading 3D Globe...

About Starlink 5095

Description loading...

Upcoming Passes

Passes for default location (London). Set your location on the main map for personalized predictions.

Altitude History

Loading altitude history...

Two-Line Element Set

1 56885U 23083K 26106.07981253 .00001204 00000-0 54547-4 0 9994
2 56885 43.0007 233.6132 0001116 281.8299 78.2427 15.26739878157353
Epoch: Apr 16, 2026 • Age: 16 hours

Current Status

Altitude 485.9 km
Velocity 7.63 km/s
Sub-Earth Point 24.03°N, 97.15°W
Launch Date Jun 12, 2023
Age 2.8 years
Type internet

Technical Details

Classification Payload
Mass 305.00 kg
Dry Mass 290.00 kg
Total Mass 305.00 kg
Length 0.20 m
Diameter 2.80 m
Span 9.00 m
Shape Box + pan
Manufacturer SPXS
Bus Type Starlink
Phase Status In Orbit
Owner/State SPXS/US

Most Searched